www.pogodaiklimat.ru

Погода и климат >> Архив погоды >> Кувейт >> Эль-Кувейт


АРХИВ ПОГОДЫ в Эль-Кувейте

Время (UTC), дата Ветер
(напр.,м/с)
 
Видим.   Явления Облачность Т
(С)
Тd
(С)
f
(%)
Тe
(С)
Тes
(С)
Комфортность P
(гПа)
Po
(гПа)
Тmin
(С)
Tmax
(С)
R
(мм)
R24
(мм)
S
(см)
03 20.05 ЮВ 4-5
{7}
10 км ясно +28.3 +18.4 55 +33 +34 очень
душно
1008.3 1002.8 23
06 20.05 ЮВ 3-6
{7}
10 км 5/0
[Ci fib]
+32.7 +22.6 55 +42 +52 опасность
перегрева
1009.4 1004.0 269
09 20.05 ЮВ 5-9
{9}
8000 м мгла 3/0
[Ci fib]
+34.9 +19.9 41 +41 +51 опасность
перегрева
1008.9 1003.5 409
12 20.05 ЮВ 7-10
{10}
7000 м мгла 3/0
[Ci fib]
+34.5 +15.3 32 +36 +40 душно 1007.1 1001.7 316
15 20.05 ЮВ 6-10
{12}
8000 м мгла 5/0
[Ac trans Ci fib]
+31.4 +16.4 41 +35 +35 очень
душно
1006.5 1001.1 57
18 20.05 Ю 4-6
{12}
8000 м мгла 5/0
[Ac trans Ci fib]
+29.5 +15.5 43 +32 +32 душно 1007.8 1002.4
21 20.05 Ю 4-17
{10}
8000 м гроза без осадков 8/6 <50 м
[Cb cap Ac As]
+28.9 +16.0 46 +32 +32 душно 1009.4 1003.9 +26.5 +36.6
00 21.05 Ю 4-7
{17}
6000 м в посл. час гроза {дождь} 8/4 1200 м
[Sc diur, vesp Ac As]
+28.8 +14.1 41 +31 +31 жарко 1008.5 1003.0
03 21.05 ЮЗ 2-2
{7}
4500 м пыль 6/0 2000 м
[Ac trans Ci fib]
+26.7 +16.0 52 +30 +31 душно 1009.9 1004.4 18
06 21.05 С 2-4
{7}
5000 м мгла 5/0
[Ci fib]
+33.2 +15.6 35 +36 +48 очень
душно
1010.4 1005.0 270
09 21.05 В 2-6
{6}
7000 м мгла 3/0
[Ci fib]
+37.3 +12.1 22 +37 +59 опасность
солнечного
удара
1010.1 1004.8 409
12 21.05 В 6-9
{9}
8000 м мгла 4/1 1200 м
[Sc diur, vesp Ac trans]
+36.7 +13.0 24 +37 +40 очень
жарко
1008.7 1003.4 321
15 21.05 З 6-8
{10}
8000 м гроза, ливневой дождь 9/4 900 м
[Cb cap Ac As]
+33.5 +16.2 36 +36 +36 очень
душно
1010.4 1005.0 4
18 21.05 Ю 5-6
{13}
10 км гроза без осадков 6/3 900 м
[Cb cap Ac cuf]
+30.1 +13.0 35 +31 +31 жарко 1009.8 1004.4
21 21.05 З 7-8
{19}
10 км в посл. час гроза 5/3 1200 м
[Sc diur, vesp Ac trans]
+32.0 +10.1 26 +32 +32 жарко 1009.3 1003.9 +25.3 +39.6
00 22.05 С 3-6
{19}
10 км 4/0
[Ac trans]
+31.0 +11.4 30 +31 +31 жарко 1009.5 1004.1
03 22.05 ЮЗ 2-3
{8}
10 км ясно +26.6 +14.7 48 +29 +30 жарко 1010.6 1005.1 26
06 22.05 СЗ 5-7
{8}
8000 м мгла ясно +36.6 +10.9 21 +36 +44 очень
жарко
1011.2 1005.9 307
09 22.05 С 4-8
{11}
10 км ясно +39.9 +6.9 14 +38 +52 опасность
солнечного
удара
1009.9 1004.6 451
12 22.05 СЗ 6-10
{12}
10 км 3/0
[Ac trans]
+40.8 +5.9 12 +38 +42 очень
жарко
1008.3 1003.0 343
15 22.05 СЗ 6-9
{11}
10 км 3/0
[Ac trans]
+39.6 +4.8 12 +37 +37 очень
жарко
1007.3 1002.0 65
18 22.05 ЮВ 2-4
{11}
10 км 3/0
[Ac trans]
+32.7 +14.9 34 +34 +34 очень
жарко
1008.6 1003.2
21 22.05 Ю 2-2
{4}
10 км ясно +28.6 +15.6 45 +31 +31 жарко 1008.6 1003.1 +25.4 +41.5
00 23.05 ЮЗ 2-2
{4}
10 км ясно +25.2 +15.7 56 +28 +28 жарко 1008.3 1002.8
03 23.05 ЮЗ 2-2
{3}
6000 м ясно +26.6 +13.2 44 +29 +30 жарко 1009.1 1003.6 27
06 23.05 СЗ 4-6
{6}
8000 м мгла 3/0
[Ci fib]
+37.8 +8.7 17 +36 +45 очень
жарко
1009.3 1004.0 305
09 23.05 СЗ 7-11
{12}
10 км ясно +39.7 +7.5 14 +37 +43 очень
жарко
1008.6 1003.3 459
12 23.05 С 7-11
{15}
10 км ясно +41.3 +6.6 12 +39 +42 очень
жарко
1006.8 1001.6 346
15 23.05 С 6-9
{12}
35 км н/о +39.0 +7.4 15 +37 +37 очень
жарко
1006.4 1001.1 66
18 23.05 С 4-5
{12}
30 км н/о +35.7 +8.2 19 +34 +34 очень
жарко
1007.6 1002.3
21 23.05 С 3-3
{7}
10 км ясно +32.8 +9.6 24 +32 +32 жарко 1007.9 1002.5 +24.1 +41.6
00 24.05 штиль 0-2
{7}
10 км ясно +26.6 +8.0 31 +27 +27 жарко 1007.3 1001.8
03 24.05 штиль 0-2
{3}
10 км мгла ясно +27.5 +9.0 31 +28 +29 жарко 1007.9 1002.4 30
06 24.05 С 3-5
{6}
10 км ясно +36.1 +9.2 19 +34 +47 очень
жарко
1008.7 1003.4 310
09 24.05 В 2-4
{6}
10 км ясно +40.0 +8.0 15 +38 +61 опасность
солнечного
удара
1007.7 1002.4 447
12 24.05 В 2-5
{7}
10 км ясно +40.9 +5.5 12 +38 +50 очень
жарко
1006.7 1001.5 352
15 24.05 ЮВ 3-5
{6}
10 км ясно +39.0 +6.9 14 +36 +37 очень
жарко
1006.4 1001.1 65
18 24.05 ЮЗ 2-2
{6}
10 км ясно +31.0 +7.6 23 +30 +30 жарко 1007.7 1002.3
21 24.05 штиль 0-1
{2}
10 км ясно +28.3 +9.6 31 +28 +28 жарко 1008.3 1002.8 +25.4 +41.8
00 25.05 СЗ 2-2
{5}
10 км ясно +26.2 +12.2 42 +28 +28 жарко 1008.6 1003.1
03 25.05 Ю 2-2
{4}
6000 м мгла ясно +25.9 +15.1 51 +29 +30 душно 1009.9 1004.4 29
06 25.05 ЮЗ 3-5
{5}
8000 м мгла ясно +37.4 +7.3 16 +35 +46 очень
жарко
1010.2 1004.9 301
09 25.05 ЮВ 4-7
{9}
10 км ясно +42.3 +5.7 11 +40 +56 опасность
солнечного
удара
1008.6 1003.4 443
12 25.05 ЮВ 5-7
{9}
10 км ясно +43.8 +7.0 11 +41 +48 опасность
перегрева
1006.8 1001.6 327
15 25.05 ЮВ 4-5
{7}
10 км ясно +40.6 +9.4 15 +39 +39 очень
жарко
1006.0 1000.8 56
18 25.05 Ю 3-4
{7}
10 км ясно +34.2 +10.5 24 +34 +34 очень
жарко
1006.8 1001.4
21 25.05 Ю 3-2
{4}
10 км ясно +29.8 +11.5 32 +30 +30 жарко 1006.8 1001.4 +23.1 +44.4
00 26.05 ЮВ 3-3
{5}
10 км ясно +29.9 +11.6 32 +30 +30 жарко 1006.7 1001.3
03 26.05 штиль 0-2
{3}
4000 м пыль ясно +27.6 +12.5 39 +29 +30 жарко 1007.3 1001.8 26
06 26.05 З 2-3
{4}
7000 м мгла ясно +40.1 +3.9 11 +37 +50 очень
жарко
1007.8 1002.5 287
09 26.05 СВ 3-7
{7}
8000 м мгла ясно +44.8 +5.4 9 +42 +60 опасность
перегрева
1006.6 1001.4 436
12 26.05 ЮВ 4-7
{9}
7000 м мгла 3/0
[Ac trans]
+44.0 +4.4 9 +41 +47 опасность
перегрева
1004.6 999.4 327
15 26.05 ЮВ 5-6
{8}
7000 м мгла 3/0
[Ac trans]
+41.1 +6.6 12 +38 +39 очень
жарко
1004.3 999.1 60
18 26.05 Ю 3-4
{8}
7000 м мгла 3/0
[Ac trans]
+34.4 +7.7 19 +33 +33 жарко 1005.6 1000.3
21 26.05 Ю 4-5
{10}
7000 м мгла 4/0
[Ac trans]
+33.8 +12.4 27 +34 +34 очень
жарко
1006.0 1000.6 +22.8 +46.0
00 27.05 штиль 0-2
{10}
7000 м мгла {гроза} 4/0 2000 м
[Ac trans]
+30.8 +8.0 24 +30 +30 жарко 1005.8 1000.4

 

Местоположение метеостанции Эль-Кувейт (Кувейт): широта 29.22 долгота 47.97 высота над уровнем моря 48 м.

В архиве по умолчанию представлена погода в Эль-Кувейте за последнюю неделю. Архивные данные за месяц целиком и за предыдущие месяцы, начиная с января 2011 года, Вы можете получить, выбрав интересующий диапазон дат из раскрывающегося списка и нажав кнопку "Ввод!".


*Определитесь, кто Вы:
робот инопланетянин человек

Внимание! Время в таблицах - всемирное. Для получения местного времени необходимо прибавить поправку, которая равна 3 ч.

Смотрите также архив погоды в соседних городах и на ближайших метеорологических станциях:

Погода на Экспериментальной ферме (Кувейт) (8 км)
Погода в Кувейт Сити (Кувейт) (14 км)
Погода в Аль-Шуаиба (Кувейт) (19 км)
Погода в Сулайбии (Кувейт) (25 км)
Погода в Эль-Джахра (Кувейт) (31 км)
Погода Остров Файлака (Кувейт) (41 км)
Погода в Минагише (Кувейт) (46 км)
Погода в Порту Juluiah (Кувейт) (49 км)
Погода на Метеостанции Jal Aliyah (Кувейт) (58 км)
Погода на Метеостанции Sabriyah (Кувейт) (60 км)

Пояснения к столбцам:

Ветер - указаны скорость ветра в м/с - средняя за 10 мин, порывы в срок и между сроками (в фигурных скобках) и направление, откуда дует ветер: С - северный, СВ - северо-восточный, В - восточный, ЮВ - юго-восточный, Ю - южный, ЮЗ - юго-западный, З - западный, СЗ - северо-западный.
Видимость - горизонтальная дальность видимости в метрах или километрах. При видимости от 1 до 10 км при отсутствии осадков обычно наблюдается дымка, при ухудшении видимости до 1 км и менее - туман. В сухую погоду видимость может ухудшаться дымом, пылью или мглою.
Явления - указаны атмосферные явления, наблюдавшиеся в срок или в последний час перед сроком; фигурными скобками обозначены явления, наблюдавшиеся между сроками (за 1-3 часа до срока); квадратными скобками обозначены град или гололедные отложения с указанием их диаметра в мм.
Облачность - указаны через наклонную черту общая и нижняя облачность в баллах и высота нижней границы облаков в метрах; квадратными скобками обозначены формы облаков: Ci - перистые, Cs - перисто-слоистые, Cc - перисто-кучевые, Ac - высококучевые, As - высокослоистые, Sc - слоисто-кучевые, Ns - слоисто-дождевые, Cu - кучевые, Cb - кучево-дождевые. Подробнее классификацию облаков см. в Атласе облаков (PDF).
T - Температура воздуха - температура, измеренная на высоте 2 м над землей.
Td - Температура точки росы - температура, при понижении до которой содержащийся в воздухе водяной пар достигнет насыщения.
f - Относительная влажность воздуха - влажноcть воздуха, измеренная на высоте 2 м над землей.
Te - Эффективная температура - температура, которую ощущает одетый по сезону человек в тени. Характеристика душности погоды. При расчете учитывается влияние влажности воздуха и скорости ветра на теплоощущения человека.
Tes - Эффективная температура на солнце - температура, которую ощущает человек, с поправкой на солнечный нагрев. Характеристика знойности погоды. Зависит от высоты солнца над горизонтом, облачности и скорости ветра. Ночью, в пасмурную погоду, а также при ветре 12 м/с и более поправка равна нулю.
P - Атмосферное давление - приведенное к уровню моря атмосферное давление.
Po - Атмосферное давление - измеренное на уровне метеостанции атмосферное давление.
Tmin - Минимальная температура - минимум температуры воздуха на высоте 2 м над землей.
Tmax - Максимальная температура - максимум температуры воздуха на высоте 2 м над землей.
R - Количество осадков - Количество выпавших осадков за период времени, мм. При наведении курсора мыши на число - период времени, за который выпало указанное количество осадков.
R24 - Количество осадков - Количество выпавших осадков за 24 часа, мм.
S - Снежный покров - Высота снежного покрова, см. При наведении курсора мыши на число - состояние снежного покрова и степень покрытия местности в баллах.